{"data":{"norad_id":48792,"epoch":"2026-09-20T04:54:48.267648Z","epoch_age_seconds":43627,"freshness":"FRESH","line1":"1 48792U 21045AB  26263.20472532 -.00000090  00000+0 -27351-3 0  9997","line2":"2 48792  87.8990 240.2468 0001953  80.4333 279.7018 13.15547819256874","mean_motion":13.15547819,"eccentricity":0.0001953,"inclination_deg":87.899,"raan_deg":240.2468,"arg_perigee_deg":80.4333,"mean_anomaly_deg":279.7018,"bstar":-0.00027351,"rev_number":25687,"period_min":109.46010317547,"perigee_km":1200.2932188373,"apogee_km":1203.253931908,"semimajor_km":7579.9105753727,"source":"CELESTRAK","updated_at":"2026-09-20T09:00:44.620494Z"}}